Location: Young's Pond
(41.2695°N, 72.7766°W)
Time: 13:41:24
(UTC-04:00)

Spot 4 - Visible Passes

Search period start: 19 April 2015 00:00
Search period end: 29 April 2015 00:00
Orbit: 706 x 724 km, 98.4° (Epoch: 19 April)

Date Brightness Start Highest point End Pass type
(mag) Time Alt. Az. Time Alt. Az. Time Alt. Az.
19 Apr 6.0 20:55:43 10° ENE 20:56:37 11° ENE 20:58:01 10° NE visible
19 Apr 4.3 22:34:52 60° NNW 22:34:52 60° NNW 22:38:51 10° NNW visible
20 Apr 4.9 21:42:50 29° ENE 21:42:50 29° ENE 21:47:00 10° N visible
20 Apr 5.6 23:21:59 27° WNW 23:21:59 27° WNW 23:25:02 10° NW visible
21 Apr 4.1 22:29:57 66° N 22:29:57 66° N 22:34:09 10° N visible
22 Apr 5.1 21:37:56 26° ENE 21:38:10 26° ENE 21:42:12 10° N visible
22 Apr 5.4 23:17:05 31° WNW 23:17:05 31° WNW 23:20:27 10° NNW visible
23 Apr 4.0 22:25:03 67° NNE 22:25:03 67° NNE 22:29:27 10° N visible
24 Apr 6.5 00:04:12 11° WNW 00:04:12 11° WNW 00:04:56 10° WNW visible
24 Apr 5.2 21:33:02 23° ENE 21:33:31 24° ENE 21:37:23 10° NNE visible
24 Apr 5.1 23:12:11 36° WNW 23:12:11 36° WNW 23:15:51 10° NNW visible
25 Apr 3.9 22:20:09 64° ENE 22:20:09 64° ENE 22:24:44 10° N visible
25 Apr 6.4 23:59:17 13° WNW 23:59:17 13° WNW 00:00:42 10° WNW visible
26 Apr 5.3 21:28:08 20° E 21:28:52 21° ENE 21:32:33 10° NNE visible
26 Apr 4.9 23:07:16 41° WNW 23:07:16 41° WNW 23:11:13 10° NNW visible
27 Apr 4.0 22:15:14 58° ENE 22:15:15 58° ENE 22:20:00 10° N visible
27 Apr 6.3 23:54:23 15° W 23:54:23 15° W 23:56:22 10° NW visible
28 Apr 5.4 21:23:13 18° E 21:24:13 19° ENE 21:27:41 10° NNE visible
28 Apr 4.6 23:02:21 47° W 23:02:21 47° W 23:06:34 10° NNW visible
